Weather History for Huntingburg, IN

Change the Weather History Date:

Sunday, February 16, 2014

  Actual Average Record
Temperature  
Mean Temperature 26 °F -  
Max Temperature 33 °F 44 °F 69 °F (2011)
Min Temperature 19 °F 29 °F 6 °F (2007)
Degree Days  
Heating Degree Days 39    
Moisture  
Dew Point 21 °F    
Average Humidity 74    
Maximum Humidity 86    
Minimum Humidity 64    
Precipitation  
Precipitation 0.00 in - - ()
Sea Level Pressure  
Sea Level Pressure 30.14 in    
Wind  
Wind Speed 6 mph (NW)    
Max Wind Speed 12 mph    
Max Gust Speed -    
Visibility 10 miles    
Events      
Averages and records for this station are not official NWS values.
T = Trace of Precipitation, MM = Missing Value Source: NWS Daily Summary

Daily Weather History Graph

Daily Weather History Graph

Search for Another Location

Airport:

Trip Planner

Search our weather history database for the weather conditions in past years. The results will help you decide how hot, cold, wet, or windy it might be!

Date:

Astronomy

Feb. 16, 2014 Rise Set
Actual Time 7:36 AM EST 6:27 PM EST
Civil Twilight 7:09 AM EST 6:54 PM EST
Nautical Twilight 6:39 AM EST 7:25 PM EST
Astronomical Twilight 6:08 AM EST 7:55 PM EST
Moon 8:21 PM EST (2/16) 8:08 AM EST (2/16)
Length of Visible Light 11h 44m
Length of Day
10h 50m
Full, 97% of the Moon is Illuminated
Feb 16
Full
Feb 22
Last Quarter
Mar 1
New
Mar 8
First Quarter
Mar 16
Full

Hourly Weather History & Observations

Time (EST) Temp. Windchill Dew Point Humidity Pressure Visibility Wind Dir Wind Speed Gust Speed Precip Events Conditions
12:15 AM 26.6 °F 19.1 °F 21.2 °F 80% 30.03 in 10.0 mi South 6.9 mph - N/A   Overcast
12:35 AM 26.6 °F 20.0 °F 21.2 °F 80% 30.03 in 10.0 mi South 5.8 mph - N/A   Overcast
12:55 AM 26.6 °F 20.0 °F 21.2 °F 80% 30.01 in 10.0 mi South 5.8 mph - N/A   Overcast
1:15 AM 26.6 °F 19.1 °F 21.2 °F 80% 30.02 in 10.0 mi South 6.9 mph - N/A   Overcast
1:35 AM 26.6 °F 21.2 °F 21.2 °F 80% 30.02 in 10.0 mi South 4.6 mph - N/A   Mostly Cloudy
1:55 AM 26.6 °F 22.6 °F 21.2 °F 80% 30.02 in 10.0 mi South 3.5 mph - N/A   Overcast
2:15 AM 28.4 °F 23.3 °F 21.2 °F 74% 30.01 in 10.0 mi South 4.6 mph - N/A   Overcast
2:35 AM 28.4 °F 23.3 °F 21.2 °F 74% 30.01 in 10.0 mi South 4.6 mph - N/A   Overcast
2:55 AM 28.4 °F 24.6 °F 21.2 °F 74% 30.01 in 9.0 mi SSW 3.5 mph - N/A   Overcast
3:15 AM 28.4 °F 23.3 °F 23.0 °F 80% 30.01 in 10.0 mi SW 4.6 mph - N/A   Overcast
3:35 AM 28.4 °F 23.3 °F 23.0 °F 80% 30.00 in 10.0 mi SSW 4.6 mph - N/A   Overcast
3:55 AM 28.4 °F 23.3 °F 23.0 °F 80% 30.00 in 10.0 mi SW 4.6 mph - N/A   Overcast
4:15 AM 28.4 °F 23.3 °F 21.2 °F 74% 30.00 in 10.0 mi SSW 4.6 mph - N/A   Overcast
4:35 AM 28.4 °F 22.2 °F 21.2 °F 74% 29.99 in 10.0 mi SSW 5.8 mph - N/A   Overcast
4:55 AM 26.6 °F 19.1 °F 21.2 °F 80% 29.99 in 10.0 mi SSW 6.9 mph - N/A   Partly Cloudy
5:15 AM 26.6 °F 21.2 °F 21.2 °F 80% 29.99 in 10.0 mi SW 4.6 mph - N/A   Clear
5:35 AM 26.6 °F 20.0 °F 21.2 °F 80% 30.00 in 10.0 mi SSW 5.8 mph - N/A   Mostly Cloudy
5:55 AM 26.6 °F 21.2 °F 19.4 °F 74% 30.00 in 9.0 mi SSW 4.6 mph - N/A   Scattered Clouds
6:15 AM 26.6 °F 22.6 °F 21.2 °F 80% 30.00 in 8.0 mi SSW 3.5 mph - N/A   Overcast
6:35 AM 26.6 °F 19.1 °F 21.2 °F 80% 30.02 in 8.0 mi SW 6.9 mph - N/A   Overcast
6:55 AM 28.4 °F 21.2 °F 21.2 °F 74% 30.03 in 10.0 mi WSW 6.9 mph - N/A   Overcast
7:15 AM 28.4 °F 21.2 °F 21.2 °F 74% 30.03 in 10.0 mi WSW 6.9 mph - N/A   Overcast
7:35 AM 28.4 °F 23.3 °F 21.2 °F 74% 30.04 in 7.0 mi West 4.6 mph - N/A   Overcast
7:55 AM 28.4 °F 22.2 °F 21.2 °F 74% 30.04 in 7.0 mi West 5.8 mph - N/A   Overcast
8:15 AM 26.6 °F 20.0 °F 21.2 °F 80% 30.05 in 7.0 mi WNW 5.8 mph - N/A   Scattered Clouds
8:35 AM 26.6 °F 19.1 °F 21.2 °F 80% 30.07 in 7.0 mi WNW 6.9 mph - N/A   Partly Cloudy
8:55 AM 26.6 °F 19.1 °F 21.2 °F 80% 30.08 in 8.0 mi WNW 6.9 mph - N/A   Clear
9:15 AM 28.4 °F 21.2 °F 21.2 °F 74% 30.09 in 9.0 mi WNW 6.9 mph - N/A   Scattered Clouds
9:35 AM 30.2 °F 22.6 °F 21.2 °F 69% 30.09 in 10.0 mi NW 8.1 mph - N/A   Overcast
9:55 AM 30.2 °F 22.6 °F 23.0 °F 75% 30.10 in 9.0 mi NW 8.1 mph - N/A   Overcast
10:15 AM 30.2 °F 21.3 °F 23.0 °F 75% 30.12 in 10.0 mi NW 10.4 mph - N/A   Overcast
10:35 AM 30.2 °F 20.8 °F 23.0 °F 75% 30.13 in 10.0 mi NNW 11.5 mph - N/A   Overcast
10:55 AM 30.2 °F 22.6 °F 23.0 °F 75% 30.14 in 10.0 mi NNW 8.1 mph - N/A   Overcast
11:15 AM 30.2 °F 22.6 °F 23.0 °F 75% 30.15 in 9.0 mi NNW 8.1 mph - N/A   Overcast
11:35 AM 30.2 °F 23.4 °F 23.0 °F 75% 30.16 in 9.0 mi WNW 6.9 mph - N/A   Overcast
11:55 AM 32.0 °F 26.4 °F 23.0 °F 69% 30.17 in 10.0 mi NW 5.8 mph - N/A   Overcast
12:15 PM 32.0 °F 25.6 °F 23.0 °F 69% 30.17 in 9.0 mi NW 6.9 mph - N/A   Overcast
12:35 PM 33.8 °F 27.7 °F 24.8 °F 70% 30.17 in 9.0 mi NW 6.9 mph - N/A   Overcast
12:55 PM 33.8 °F 28.6 °F 24.8 °F 70% 30.17 in 10.0 mi NW 5.8 mph - N/A   Overcast
1:15 PM 33.8 °F 27.7 °F 24.8 °F 70% 30.18 in 10.0 mi NW 6.9 mph - N/A   Mostly Cloudy
1:35 PM 33.8 °F 27.7 °F 24.8 °F 70% 30.17 in 10.0 mi NNW 6.9 mph - N/A   Scattered Clouds
1:55 PM 33.8 °F 27.0 °F 24.8 °F 70% 30.18 in 9.0 mi WNW 8.1 mph - N/A   Scattered Clouds
2:15 PM 33.8 °F 27.7 °F 24.8 °F 70% 30.18 in 9.0 mi NW 6.9 mph - N/A   Mostly Cloudy
2:35 PM 33.8 °F 27.0 °F 24.8 °F 70% 30.18 in 9.0 mi NNW 8.1 mph - N/A   Scattered Clouds
2:55 PM 33.8 °F 27.0 °F 24.8 °F 70% 30.19 in 10.0 mi WNW 8.1 mph - N/A   Mostly Cloudy
3:15 PM 32.0 °F 23.6 °F 23.0 °F 69% 30.18 in 10.0 mi NNW 10.4 mph - N/A   Mostly Cloudy
3:35 PM 32.0 °F 23.0 °F 23.0 °F 69% 30.18 in 10.0 mi NNW 11.5 mph - N/A   Mostly Cloudy
3:55 PM 32.0 °F 23.6 °F 21.2 °F 64% 30.19 in 10.0 mi NW 10.4 mph - N/A   Overcast
4:15 PM 30.2 °F 24.3 °F 21.2 °F 69% 30.20 in 9.0 mi NNW 5.8 mph - N/A   Mostly Cloudy
4:35 PM 30.2 °F 21.3 °F 21.2 °F 69% 30.22 in 10.0 mi NNW 10.4 mph - N/A   Mostly Cloudy
4:55 PM 30.2 °F 22.6 °F 21.2 °F 69% 30.22 in 10.0 mi North 8.1 mph - N/A   Partly Cloudy
5:15 PM 30.2 °F 22.6 °F 19.4 °F 64% 30.23 in 10.0 mi North 8.1 mph - N/A   Clear
5:35 PM 28.4 °F 22.2 °F 19.4 °F 69% 30.24 in 10.0 mi North 5.8 mph - N/A   Clear
5:55 PM 28.4 °F 20.4 °F 19.4 °F 69% 30.24 in 10.0 mi North 8.1 mph - N/A   Clear
6:15 PM 28.4 °F 20.4 °F 17.6 °F 64% 30.24 in 10.0 mi North 8.1 mph - N/A   Clear
6:35 PM 26.6 °F 21.2 °F 17.6 °F 69% 30.25 in 10.0 mi North 4.6 mph - N/A   Clear
6:55 PM 26.6 °F 20.0 °F 17.6 °F 69% 30.25 in 10.0 mi North 5.8 mph - N/A   Clear
7:15 PM 26.6 °F 20.0 °F 17.6 °F 69% 30.26 in 10.0 mi North 5.8 mph - N/A   Clear
7:35 PM 26.6 °F 19.1 °F 17.6 °F 69% 30.27 in 10.0 mi North 6.9 mph - N/A   Clear
7:55 PM 24.8 °F 17.9 °F 17.6 °F 74% 30.27 in 10.0 mi North 5.8 mph - N/A   Clear
8:15 PM 24.8 °F 17.9 °F 15.8 °F 69% 30.27 in 10.0 mi NNE 5.8 mph - N/A   Clear
8:35 PM 24.8 °F 19.1 °F 17.6 °F 74% 30.27 in 9.0 mi NNE 4.6 mph - N/A   Clear
8:55 PM 23.0 °F 18.4 °F 15.8 °F 74% 30.27 in 10.0 mi NNE 3.5 mph - N/A   Clear
9:15 PM 21.2 °F 12.6 °F 15.8 °F 80% 30.26 in 10.0 mi NE 6.9 mph - N/A   Clear
9:35 PM 21.2 °F 13.6 °F 15.8 °F 80% 30.26 in 10.0 mi NNE 5.8 mph - N/A   Clear
9:55 PM 21.2 °F 14.9 °F 15.8 °F 80% 30.27 in 10.0 mi North 4.6 mph - N/A   Clear
10:15 PM 21.2 °F 16.4 °F 15.8 °F 80% 30.26 in 10.0 mi North 3.5 mph - N/A   Clear
10:35 PM 19.4 °F 14.3 °F 14.0 °F 80% 30.26 in 9.0 mi NNE 3.5 mph - N/A   Clear
10:55 PM 21.2 °F 16.4 °F 15.8 °F 80% 30.26 in 10.0 mi NNE 3.5 mph - N/A   Clear
11:15 PM 19.4 °F 12.8 °F 14.0 °F 80% 30.25 in 8.0 mi NE 4.6 mph - N/A   Clear
11:35 PM 19.4 °F 11.5 °F 15.8 °F 86% 30.25 in 9.0 mi NE 5.8 mph - N/A   Clear
11:55 PM 19.4 °F 11.5 °F 14.0 °F 80% 30.25 in 7.0 mi NNE 5.8 mph - N/A   Clear